Weather History for Martinsville, VA

Change the Weather History Date:

Friday, February 24, 2012

  Actual Average (KGSO) Record (KGSO)
Temperature  
Mean Temperature 62 °F 44 °F  
Max Temperature 80 °F 55 °F 79 °F (1982)
Min Temperature 44 °F 34 °F 12 °F (1967)
Degree Days  
Heating Degree Days 3 21  
Month to date heating degree days 553  
Since 1 July heating degree days 2776  
Cooling Degree Days 0 0  
Month to date cooling degree days 0  
Year to date cooling degree days 0  
Growing Degree Days 12 (Base 50)    
Moisture  
Dew Point 48 °F    
Average Humidity 60    
Maximum Humidity 83    
Minimum Humidity 29    
Precipitation  
Precipitation 0.00 in 0.12 in 1.73 in (1979)
Month to date precipitation 2.50  
Year to date precipitation 5.56  
Snow  
Snow 0.00 in 0.10 in 3.70 in (1942)
Month to date snowfall 2.1  
Since 1 July snowfall 6.4  
Snow Depth -    
Sea Level Pressure  
Sea Level Pressure 29.62 in    
Wind  
Wind Speed 6 mph (WSW)    
Max Wind Speed 15 mph    
Max Gust Speed 28 mph    
Visibility 10 miles    
Events      
T = Trace of Precipitation, MM = Missing Value Source: NWS Daily Summary

Daily Weather History Graph

Daily Weather History Graph

Search for Another Location

Airport:

Trip Planner

Search our weather history database for the weather conditions in past years. The results will help you decide how hot, cold, wet, or windy it might be!

Date:

Astronomy

Feb. 24, 2012 Rise Set
Actual Time 6:57 AM EST 6:09 PM EST
Civil Twilight 6:31 AM EST 6:35 PM EST
Nautical Twilight 6:01 AM EST 7:05 PM EST
Astronomical Twilight 5:31 AM EST 7:35 PM EST
Moon 7:57 AM EST (2/24) 9:04 PM EST (2/24)
Length of Visible Light 12h 03m
Length of Day
11h 11m
Waxing Crescent, 7% of the Moon is Illuminated
Feb 24
Waxing Crescent
Feb 29
First Quarter
Mar 8
Full
Mar 14
Last Quarter
Mar 22
New

Hourly Weather History & Observations

Time (EST) Temp. Windchill Dew Point Humidity Pressure Visibility Wind Dir Wind Speed Gust Speed Precip Events Conditions
12:15 AM 60.8 °F - 53.6 °F 77% 29.55 in 10.0 mi South 5.8 mph - N/A   Clear
12:35 AM 62.6 °F - 53.6 °F 72% 29.54 in 10.0 mi South 4.6 mph - N/A   Clear
12:55 AM 62.6 °F - 53.6 °F 72% 29.54 in 10.0 mi South 3.5 mph - N/A   Clear
1:15 AM 62.6 °F - 55.4 °F 77% 29.54 in 10.0 mi Calm Calm - N/A   Clear
1:35 AM 62.6 °F - 55.4 °F 77% 29.54 in 10.0 mi South 3.5 mph - N/A   Clear
1:55 AM 62.6 °F - 55.4 °F 77% 29.55 in 10.0 mi Calm Calm - N/A   Clear
2:15 AM 64.4 °F - 55.4 °F 73% 29.55 in 10.0 mi SSW 4.6 mph - N/A   Clear
2:35 AM 64.4 °F - 57.2 °F 77% 29.54 in 10.0 mi Calm Calm - N/A   Clear
2:55 AM 62.6 °F - 57.2 °F 82% 29.54 in 10.0 mi SSW 3.5 mph - N/A   Clear
3:15 AM 64.4 °F - 57.2 °F 77% 29.54 in 10.0 mi Calm Calm - N/A   Scattered Clouds
3:35 AM 64.4 °F - 57.2 °F 77% 29.53 in 10.0 mi Calm Calm - N/A   Mostly Cloudy
3:55 AM 64.4 °F - 57.2 °F 77% 29.53 in 10.0 mi SSW 4.6 mph - N/A   Mostly Cloudy
4:15 AM 64.4 °F - 59.0 °F 83% 29.52 in 10.0 mi SSW 4.6 mph - N/A   Mostly Cloudy
4:35 AM 66.2 °F - 60.8 °F 83% 29.52 in 10.0 mi SSW 6.9 mph - N/A   Mostly Cloudy
4:55 AM 66.2 °F - 60.8 °F 83% 29.53 in 10.0 mi SSW 6.9 mph - N/A   Overcast
5:15 AM 66.2 °F - 60.8 °F 83% 29.54 in 10.0 mi SSW 5.8 mph - N/A   Overcast
5:35 AM 68.0 °F - 60.8 °F 78% 29.54 in 10.0 mi SW 5.8 mph - N/A   Overcast
5:55 AM 68.0 °F - 60.8 °F 78% 29.54 in 10.0 mi SSW 6.9 mph - N/A   Overcast
6:15 AM 68.0 °F - 60.8 °F 78% 29.54 in 10.0 mi SW 10.4 mph 18.4 mph N/A   Overcast
6:35 AM 68.0 °F - 60.8 °F 78% 29.55 in 10.0 mi SSW 6.9 mph - N/A   Overcast
7:15 AM 66.2 °F - 60.8 °F 83% 29.56 in 10.0 mi SW 5.8 mph - N/A   Scattered Clouds
7:35 AM 66.2 °F - 60.8 °F 83% 29.56 in 10.0 mi SSW 6.9 mph - N/A   Mostly Cloudy
7:55 AM 68.0 °F - 60.8 °F 78% 29.58 in 10.0 mi SW 4.6 mph - N/A   Scattered Clouds
8:15 AM 68.0 °F - 60.8 °F 78% 29.59 in 10.0 mi WSW 5.8 mph - N/A   Scattered Clouds
8:35 AM 68.0 °F - 60.8 °F 78% 29.59 in 10.0 mi Calm Calm - N/A   Scattered Clouds
8:55 AM 68.0 °F - 60.8 °F 78% 29.59 in 10.0 mi SW 4.6 mph - N/A   Scattered Clouds
9:15 AM 69.8 °F - 60.8 °F 73% 29.58 in 10.0 mi SW 8.1 mph - N/A   Clear
9:55 AM 73.4 °F - 60.8 °F 65% 29.57 in 10.0 mi SW 6.9 mph - N/A   Clear
10:15 AM 73.4 °F - 60.8 °F 65% 29.57 in 10.0 mi West 6.9 mph - N/A   Clear
10:35 AM 75.2 °F - 60.8 °F 61% 29.56 in 10.0 mi SW 8.1 mph - N/A   Clear
10:55 AM 77.0 °F - 59.0 °F 54% 29.56 in 10.0 mi SSW 10.4 mph 19.6 mph N/A   Scattered Clouds
11:15 AM 78.8 °F - 57.2 °F 47% 29.54 in 10.0 mi SW 11.5 mph 18.4 mph N/A   Clear
11:35 AM 78.8 °F - 57.2 °F 47% 29.53 in 10.0 mi SSW 10.4 mph 16.1 mph N/A   Scattered Clouds
11:55 AM 78.8 °F - 57.2 °F 47% 29.52 in 10.0 mi SW 11.5 mph 16.1 mph N/A   Scattered Clouds
12:15 PM 80.6 °F - 55.4 °F 42% 29.50 in 10.0 mi SSW 9.2 mph 24.2 mph N/A   Scattered Clouds
12:35 PM 80.6 °F - 55.4 °F 42% 29.48 in 10.0 mi South 5.8 mph 16.1 mph N/A   Scattered Clouds
1:15 PM 78.8 °F - 55.4 °F 44% 29.46 in 10.0 mi SSW 8.1 mph 23.0 mph N/A   Scattered Clouds
6:15 PM 57.2 °F - 32.0 °F 38% 29.66 in 10.0 mi West 10.4 mph 27.6 mph N/A   Clear
6:35 PM 57.2 °F - 30.2 °F 36% 29.67 in 10.0 mi WNW 13.8 mph 26.5 mph N/A   Clear
6:55 PM 57.2 °F - 32.0 °F 38% 29.68 in 10.0 mi West 9.2 mph 18.4 mph N/A   Clear
7:15 PM 57.2 °F - 30.2 °F 36% 29.71 in 10.0 mi WNW 12.7 mph 25.3 mph N/A   Scattered Clouds
7:35 PM 55.4 °F - 23.0 °F 29% 29.74 in 10.0 mi WNW 8.1 mph 26.5 mph N/A   Clear
7:55 PM 53.6 °F - 23.0 °F 30% 29.77 in 10.0 mi West 5.8 mph 27.6 mph N/A   Clear
8:15 PM 51.8 °F - 21.2 °F 30% 29.78 in 10.0 mi West 9.2 mph 17.3 mph N/A   Clear
8:35 PM 51.8 °F - 23.0 °F 33% 29.80 in 10.0 mi WNW 10.4 mph 21.9 mph N/A   Clear
8:55 PM 48.2 °F - 23.0 °F 37% 29.83 in 10.0 mi WNW 10.4 mph 18.4 mph N/A   Clear
9:15 PM 48.2 °F - 23.0 °F 37% 29.83 in 10.0 mi NW 15.0 mph 18.4 mph N/A   Scattered Clouds
9:35 PM 48.2 °F - 21.2 °F 34% 29.85 in 10.0 mi NW 12.7 mph 19.6 mph N/A   Scattered Clouds
9:55 PM 46.4 °F 43.5 °F 21.2 °F 37% 29.86 in 10.0 mi West 5.8 mph - N/A   Mostly Cloudy
10:15 PM 46.4 °F 41.9 °F 21.2 °F 37% 29.86 in 10.0 mi West 9.2 mph - N/A   Scattered Clouds
10:35 PM 46.4 °F 41.5 °F 21.2 °F 37% 29.86 in 10.0 mi WNW 10.4 mph 16.1 mph N/A   Scattered Clouds
10:55 PM 46.4 °F 40.7 °F 21.2 °F 37% 29.87 in 10.0 mi WNW 12.7 mph 24.2 mph N/A   Clear
11:35 PM 44.6 °F 40.7 °F 23.0 °F 43% 29.89 in 10.0 mi West 6.9 mph 18.4 mph N/A   Scattered Clouds
11:55 PM 44.6 °F 40.7 °F 21.2 °F 39% 29.90 in 10.0 mi WNW 6.9 mph 21.9 mph N/A   Clear